Time,TemperatureF,DewpointF,PressureIn,WindDirection,WindDirectionDegrees,WindSpeedMPH,WindSpeedGustMPH,Humidity,HourlyPrecipIn,Conditions,Clouds,dailyrainin,SoftwareType,DateUTC
2013-03-29 00:00:00,30.3,22.4,30.34,WSW,253,0.0,1.0,72,0.00,,---,0.00,VWS V14.01,2013-03-29 04:00:00,
2013-03-29 00:05:00,30.5,22.6,30.34,NNW,348,0.0,2.0,72,0.00,,---,0.00,VWS V14.01,2013-03-29 04:05:00,
2013-03-29 00:10:00,30.5,22.6,30.34,NW,306,1.0,2.0,72,0.00,,---,0.00,VWS V14.01,2013-03-29 04:10:00,
2013-03-29 00:15:00,30.5,22.6,30.34,NW,322,0.0,2.0,72,0.00,,---,0.00,VWS V14.01,2013-03-29 04:15:00,
2013-03-29 00:20:00,30.3,22.7,30.34,North,11,0.0,2.0,73,0.00,,---,0.00,VWS V14.01,2013-03-29 04:20:00,
2013-03-29 00:25:00,30.0,22.4,30.34,SW,218,0.0,2.0,73,0.00,,---,0.00,VWS V14.01,2013-03-29 04:25:00,
2013-03-29 00:30:00,29.9,22.3,30.33,West,275,0.0,1.0,73,0.00,,---,0.00,VWS V14.01,2013-03-29 04:30:00,
2013-03-29 00:35:00,29.9,22.3,30.33,West,273,0.0,1.0,73,0.00,,---,0.00,VWS V14.01,2013-03-29 04:35:00,
2013-03-29 00:40:00,29.8,22.5,30.33,West,276,0.0,1.0,74,0.00,,---,0.00,VWS V14.01,2013-03-29 04:40:00,
2013-03-29 00:45:00,29.9,22.3,30.34,North,350,0.0,1.0,73,0.00,,---,0.00,VWS V14.01,2013-03-29 04:45:00,
2013-03-29 00:51:00,29.8,22.5,30.34,NE,49,0.0,1.0,74,0.00,,---,0.00,VWS V14.01,2013-03-29 04:51:00,
2013-03-29 00:56:00,29.6,22.4,30.33,NE,49,0.0,1.0,74,0.00,,---,0.00,VWS V14.01,2013-03-29 04:56:00,
2013-03-29 01:01:00,29.5,22.6,30.33,NW,318,0.0,0.0,75,0.00,,---,0.00,VWS V14.01,2013-03-29 05:01:00,
2013-03-29 01:06:00,29.5,22.6,30.33,NW,311,0.0,0.0,75,0.00,,---,0.00,VWS V14.01,2013-03-29 05:06:00,
2013-03-29 01:11:00,29.4,22.5,30.33,SE,131,0.0,0.0,75,0.00,,---,0.00,VWS V14.01,2013-03-29 05:11:00,
2013-03-29 01:16:00,30.0,23.0,30.33,West,276,0.0,4.0,75,0.00,,---,0.00,VWS V14.01,2013-03-29 05:16:00,
2013-03-29 01:21:00,30.1,22.8,30.33,NW,326,0.0,4.0,74,0.00,,---,0.00,VWS V14.01,2013-03-29 05:21:00,
2013-03-29 01:26:00,30.1,22.8,30.33,WSW,253,0.0,4.0,74,0.00,,---,0.00,VWS V14.01,2013-03-29 05:26:00,
2013-03-29 01:31:00,30.4,22.8,30.33,NW,316,0.0,0.0,73,0.00,,---,0.00,VWS V14.01,2013-03-29 05:31:00,
2013-03-29 01:36:00,30.2,22.6,30.33,North,4,0.0,1.0,73,0.00,,---,0.00,VWS V14.01,2013-03-29 05:36:00,
2013-03-29 01:42:00,30.1,22.8,30.33,NNE,18,0.0,1.0,74,0.00,,---,0.00,VWS V14.01,2013-03-29 05:42:00,
2013-03-29 01:47:00,29.9,22.6,30.33,NNE,12,0.0,1.0,74,0.00,,---,0.00,VWS V14.01,2013-03-29 05:47:00,
2013-03-29 01:52:00,29.6,22.4,30.33,North,11,0.0,1.0,74,0.00,,---,0.00,VWS V14.01,2013-03-29 05:52:00,
2013-03-29 01:57:00,29.1,22.2,30.33,North,11,0.0,1.0,75,0.00,,---,0.00,VWS V14.01,2013-03-29 05:57:00,
2013-03-29 02:02:00,29.0,22.7,30.33,West,276,1.0,2.0,77,0.00,,---,0.00,VWS V14.01,2013-03-29 06:02:00,
2013-03-29 02:07:00,29.5,22.9,30.33,West,270,0.0,2.0,76,0.00,,---,0.00,VWS V14.01,2013-03-29 06:07:00,
2013-03-29 02:12:00,29.6,22.7,30.33,NNW,328,0.0,2.0,75,0.00,,---,0.00,VWS V14.01,2013-03-29 06:12:00,
2013-03-29 02:17:00,29.5,22.6,30.34,WSW,249,0.0,2.0,75,0.00,,---,0.00,VWS V14.01,2013-03-29 06:17:00,
2013-03-29 02:22:00,29.5,22.6,30.33,WSW,249,0.0,2.0,75,0.00,,---,0.00,VWS V14.01,2013-03-29 06:22:00,
2013-03-29 02:27:00,29.2,22.3,30.33,WSW,249,0.0,2.0,75,0.00,,---,0.00,VWS V14.01,2013-03-29 06:27:00,
2013-03-29 02:32:00,29.1,22.5,30.34,WSW,249,0.0,1.0,76,0.00,,---,0.00,VWS V14.01,2013-03-29 06:32:00,
2013-03-29 02:37:00,29.2,22.6,30.33,SW,235,0.0,1.0,76,0.00,,---,0.00,VWS V14.01,2013-03-29 06:37:00,
2013-03-29 02:42:00,29.2,22.6,30.33,SW,222,0.0,1.0,76,0.00,,---,0.00,VWS V14.01,2013-03-29 06:42:00,
2013-03-29 02:47:00,29.4,22.8,30.34,WSW,245,0.0,2.0,76,0.00,,---,0.00,VWS V14.01,2013-03-29 06:47:00,
2013-03-29 02:52:00,29.6,22.7,30.34,SW,215,0.0,2.0,75,0.00,,---,0.00,VWS V14.01,2013-03-29 06:52:00,
2013-03-29 02:57:00,29.6,23.0,30.33,WSW,245,0.0,2.0,76,0.00,,---,0.00,VWS V14.01,2013-03-29 06:57:00,
2013-03-29 03:02:00,29.5,22.6,30.33,WSW,242,0.0,0.0,75,0.00,,---,0.00,VWS V14.01,2013-03-29 07:02:00,
2013-03-29 03:08:00,29.2,22.6,30.33,WSW,238,0.0,1.0,76,0.00,,---,0.00,VWS V14.01,2013-03-29 07:08:00,
2013-03-29 03:13:00,29.4,23.1,30.33,WSW,250,0.0,2.0,77,0.00,,---,0.00,VWS V14.01,2013-03-29 07:13:00,
2013-03-29 03:18:00,29.3,22.7,30.33,WSW,250,0.0,2.0,76,0.00,,---,0.00,VWS V14.01,2013-03-29 07:18:00,
2013-03-29 03:23:00,28.9,22.3,30.33,WSW,250,0.0,2.0,76,0.00,,---,0.00,VWS V14.01,2013-03-29 07:23:00,
2013-03-29 03:28:00,28.5,22.5,30.33,WSW,250,0.0,2.0,78,0.00,,---,0.00,VWS V14.01,2013-03-29 07:28:00,
2013-03-29 03:33:00,28.7,22.7,30.33,WSW,250,0.0,0.0,78,0.00,,---,0.00,VWS V14.01,2013-03-29 07:33:00,
2013-03-29 03:38:00,28.6,22.3,30.33,WSW,250,0.0,0.0,77,0.00,,---,0.00,VWS V14.01,2013-03-29 07:38:00,
2013-03-29 03:43:00,28.6,22.6,30.33,WSW,250,0.0,1.0,78,0.00,,---,0.00,VWS V14.01,2013-03-29 07:43:00,
2013-03-29 03:48:00,29.0,23.0,30.33,WSW,250,0.0,1.0,78,0.00,,---,0.00,VWS V14.01,2013-03-29 07:48:00,
2013-03-29 03:53:00,29.3,23.3,30.33,WSW,256,0.0,2.0,78,0.00,,---,0.00,VWS V14.01,2013-03-29 07:53:00,
2013-03-29 03:58:00,29.5,23.2,30.33,SW,217,0.0,2.0,77,0.00,,---,0.00,VWS V14.01,2013-03-29 07:58:00,
2013-03-29 04:03:00,29.4,23.1,30.33,SW,227,1.0,2.0,77,0.00,,---,0.00,VWS V14.01,2013-03-29 08:03:00,
2013-03-29 04:08:00,29.2,22.6,30.33,SW,214,0.0,2.0,76,0.00,,---,0.00,VWS V14.01,2013-03-29 08:08:00,
2013-03-29 04:13:00,29.3,23.0,30.33,SSW,200,0.0,2.0,77,0.00,,---,0.00,VWS V14.01,2013-03-29 08:13:00,
2013-03-29 04:18:00,29.3,23.0,30.33,WSW,248,0.0,2.0,77,0.00,,---,0.00,VWS V14.01,2013-03-29 08:18:00,
2013-03-29 04:23:00,29.7,23.4,30.33,WSW,249,0.0,3.0,77,0.00,,---,0.00,VWS V14.01,2013-03-29 08:23:00,
2013-03-29 04:28:00,29.8,23.2,30.33,West,260,2.0,3.0,76,0.00,,---,0.00,VWS V14.01,2013-03-29 08:28:00,
2013-03-29 04:33:00,29.9,23.0,30.33,WSW,247,1.0,1.0,75,0.00,,---,0.00,VWS V14.01,2013-03-29 08:33:00,
2013-03-29 04:38:00,29.0,22.4,30.33,WSW,247,0.0,1.0,76,0.00,,---,0.00,VWS V14.01,2013-03-29 08:38:00,
2013-03-29 04:43:00,28.3,22.0,30.33,WSW,248,0.0,1.0,77,0.00,,---,0.00,VWS V14.01,2013-03-29 08:43:00,
2013-03-29 04:48:00,27.4,21.5,30.33,WSW,247,0.0,1.0,78,0.00,,---,0.00,VWS V14.01,2013-03-29 08:48:00,
2013-03-29 04:53:00,26.4,20.8,30.33,WSW,248,0.0,1.0,79,0.00,,---,0.00,VWS V14.01,2013-03-29 08:53:00,
2013-03-29 04:58:00,25.4,20.7,30.33,South,169,0.0,1.0,82,0.00,,---,0.00,VWS V14.01,2013-03-29 08:58:00,
2013-03-29 05:03:00,24.8,20.4,30.33,South,169,0.0,0.0,83,0.00,,---,0.00,VWS V14.01,2013-03-29 09:03:00,
2013-03-29 05:08:00,24.4,20.5,30.33,South,169,0.0,0.0,85,0.00,,---,0.00,VWS V14.01,2013-03-29 09:08:00,
2013-03-29 05:13:00,24.2,20.9,30.33,South,169,0.0,0.0,87,0.00,,---,0.00,VWS V14.01,2013-03-29 09:13:00,
2013-03-29 05:18:00,24.2,21.2,30.33,South,169,0.0,0.0,88,0.00,,---,0.00,VWS V14.01,2013-03-29 09:18:00,
2013-03-29 05:23:00,24.2,21.4,30.33,South,169,0.0,0.0,89,0.00,,---,0.00,VWS V14.01,2013-03-29 09:23:00,
2013-03-29 05:28:00,24.0,21.2,30.33,South,169,0.0,0.0,89,0.00,,---,0.00,VWS V14.01,2013-03-29 09:28:00,
2013-03-29 05:33:00,23.8,21.3,30.33,South,169,0.0,0.0,90,0.00,,---,0.00,VWS V14.01,2013-03-29 09:33:00,
2013-03-29 05:38:00,23.8,21.3,30.33,South,169,0.0,0.0,90,0.00,,---,0.00,VWS V14.01,2013-03-29 09:38:00,
2013-03-29 05:43:00,23.7,21.2,30.33,South,169,0.0,0.0,90,0.00,,---,0.00,VWS V14.01,2013-03-29 09:43:00,
2013-03-29 05:48:00,23.6,21.1,30.33,South,169,0.0,0.0,90,0.00,,---,0.00,VWS V14.01,2013-03-29 09:48:00,
2013-03-29 05:53:00,23.4,20.9,30.33,South,169,0.0,0.0,90,0.00,,---,0.00,VWS V14.01,2013-03-29 09:53:00,
2013-03-29 05:58:00,23.2,21.0,30.33,South,169,0.0,0.0,91,0.00,,---,0.00,VWS V14.01,2013-03-29 09:58:00,
2013-03-29 06:03:00,23.1,20.9,30.33,South,169,0.0,0.0,91,0.00,,---,0.00,VWS V14.01,2013-03-29 10:03:00,
2013-03-29 06:08:00,22.9,20.7,30.33,South,169,0.0,0.0,91,0.00,,---,0.00,VWS V14.01,2013-03-29 10:08:00,
2013-03-29 06:13:00,22.8,20.6,30.33,South,169,0.0,0.0,91,0.00,,---,0.00,VWS V14.01,2013-03-29 10:13:00,
2013-03-29 06:18:00,22.7,20.5,30.33,South,169,0.0,0.0,91,0.00,,---,0.00,VWS V14.01,2013-03-29 10:18:00,
2013-03-29 06:23:00,22.6,20.6,30.33,South,169,0.0,0.0,92,0.00,,---,0.00,VWS V14.01,2013-03-29 10:23:00,
2013-03-29 06:28:00,22.5,20.5,30.33,South,169,0.0,0.0,92,0.00,,---,0.00,VWS V14.01,2013-03-29 10:28:00,
2013-03-29 06:33:00,22.2,20.2,30.34,South,169,0.0,0.0,92,0.00,,---,0.00,VWS V14.01,2013-03-29 10:33:00,
2013-03-29 06:38:00,22.1,20.1,30.34,South,169,0.0,0.0,92,0.00,,---,0.00,VWS V14.01,2013-03-29 10:38:00,
2013-03-29 06:43:00,22.3,20.3,30.34,South,169,0.0,0.0,92,0.00,,---,0.00,VWS V14.01,2013-03-29 10:43:00,
2013-03-29 06:48:00,22.2,20.2,30.34,South,169,0.0,0.0,92,0.00,,---,0.00,VWS V14.01,2013-03-29 10:48:00,
2013-03-29 06:53:00,22.1,20.1,30.34,South,169,0.0,0.0,92,0.00,,---,0.00,VWS V14.01,2013-03-29 10:53:00,
2013-03-29 06:58:00,22.2,20.2,30.34,South,169,0.0,0.0,92,0.00,,---,0.00,VWS V14.01,2013-03-29 10:58:00,
2013-03-29 07:03:00,22.0,20.0,30.34,South,169,0.0,0.0,92,0.00,,---,0.00,VWS V14.01,2013-03-29 11:03:00,
2013-03-29 07:08:00,21.8,19.8,30.35,South,169,0.0,0.0,92,0.00,,---,0.00,VWS V14.01,2013-03-29 11:08:00,
2013-03-29 07:13:00,21.9,20.2,30.35,South,169,0.0,0.0,93,0.00,,---,0.00,VWS V14.01,2013-03-29 11:13:00,
2013-03-29 07:18:00,22.0,20.3,30.35,South,169,0.0,0.0,93,0.00,,---,0.00,VWS V14.01,2013-03-29 11:18:00,
2013-03-29 07:23:00,22.0,20.3,30.35,South,169,0.0,0.0,93,0.00,,---,0.00,VWS V14.01,2013-03-29 11:23:00,
2013-03-29 07:29:00,22.1,20.4,30.35,South,169,0.0,0.0,93,0.00,,---,0.00,VWS V14.01,2013-03-29 11:29:00,
2013-03-29 07:34:00,22.1,20.4,30.35,South,169,0.0,0.0,93,0.00,,---,0.00,VWS V14.01,2013-03-29 11:34:00,
2013-03-29 07:39:00,22.0,20.3,30.35,South,169,0.0,0.0,93,0.00,,---,0.00,VWS V14.01,2013-03-29 11:39:00,
2013-03-29 07:44:00,22.0,20.3,30.35,South,169,0.0,0.0,93,0.00,,---,0.00,VWS V14.01,2013-03-29 11:44:00,
2013-03-29 07:49:00,22.0,20.3,30.35,South,169,0.0,0.0,93,0.00,,---,0.00,VWS V14.01,2013-03-29 11:49:00,
2013-03-29 07:54:00,22.3,20.6,30.35,SSE,167,0.0,0.0,93,0.00,,---,0.00,VWS V14.01,2013-03-29 11:54:00,
2013-03-29 07:59:00,22.4,20.7,30.35,SSE,167,0.0,0.0,93,0.00,,---,0.00,VWS V14.01,2013-03-29 11:59:00,
2013-03-29 08:04:00,22.7,21.0,30.35,SSE,167,0.0,0.0,93,0.00,,---,0.00,VWS V14.01,2013-03-29 12:04:00,
2013-03-29 08:09:00,23.5,21.8,30.36,South,169,0.0,0.0,93,0.00,,---,0.00,VWS V14.01,2013-03-29 12:09:00,
2013-03-29 08:14:00,24.6,22.9,30.36,SSE,167,0.0,0.0,93,0.00,,---,0.00,VWS V14.01,2013-03-29 12:14:00,
2013-03-29 08:19:00,25.8,23.8,30.36,SSE,168,0.0,0.0,92,0.00,,---,0.00,VWS V14.01,2013-03-29 12:19:00,
2013-03-29 08:24:00,26.7,23.9,30.36,SSE,167,0.0,0.0,89,0.00,,---,0.00,VWS V14.01,2013-03-29 12:24:00,
2013-03-29 08:29:00,27.7,24.3,30.36,SSE,168,0.0,0.0,87,0.00,,---,0.00,VWS V14.01,2013-03-29 12:29:00,
2013-03-29 08:34:00,28.4,24.5,30.36,SSE,167,0.0,0.0,85,0.00,,---,0.00,VWS V14.01,2013-03-29 12:34:00,
2013-03-29 08:39:00,29.2,24.7,30.36,SE,141,0.0,1.0,83,0.00,,---,0.00,VWS V14.01,2013-03-29 12:39:00,
2013-03-29 08:44:00,29.8,25.0,30.35,ESE,113,1.0,1.0,82,0.00,,---,0.00,VWS V14.01,2013-03-29 12:44:00,
2013-03-29 08:49:00,30.4,25.0,30.35,ESE,116,1.0,1.0,80,0.00,,---,0.00,VWS V14.01,2013-03-29 12:49:00,
2013-03-29 08:54:00,31.1,25.0,30.35,ESE,108,1.0,1.0,78,0.00,,---,0.00,VWS V14.01,2013-03-29 12:54:00,
2013-03-29 08:59:00,32.0,25.6,30.35,ESE,107,0.0,1.0,77,0.00,,---,0.00,VWS V14.01,2013-03-29 12:59:00,
2013-03-29 09:04:00,32.7,25.7,30.35,ESE,107,1.0,1.0,75,0.00,,---,0.00,VWS V14.01,2013-03-29 13:04:00,
2013-03-29 09:09:00,33.3,25.9,30.35,ESE,108,1.0,1.0,74,0.00,,---,0.00,VWS V14.01,2013-03-29 13:09:00,
2013-03-29 09:14:00,34.1,26.4,30.35,SSW,203,1.0,2.0,73,0.00,,---,0.00,VWS V14.01,2013-03-29 13:14:00,
2013-03-29 09:19:00,35.3,26.9,30.36,South,191,1.0,2.0,71,0.00,,---,0.00,VWS V14.01,2013-03-29 13:19:00,
2013-03-29 09:24:00,37.0,27.8,30.35,SSE,167,0.0,2.0,69,0.00,,---,0.00,VWS V14.01,2013-03-29 13:24:00,
2013-03-29 09:29:00,38.2,26.7,30.35,SW,232,2.0,3.0,63,0.00,,---,0.00,VWS V14.01,2013-03-29 13:29:00,
2013-03-29 09:34:00,37.3,25.5,30.35,South,188,4.0,5.0,62,0.00,,---,0.00,VWS V14.01,2013-03-29 13:34:00,
2013-03-29 09:39:00,36.7,25.3,30.35,SSW,205,3.0,7.0,63,0.00,,---,0.00,VWS V14.01,2013-03-29 13:39:00,
2013-03-29 09:44:00,36.6,25.2,30.35,SSW,203,3.0,7.0,63,0.00,,---,0.00,VWS V14.01,2013-03-29 13:44:00,
2013-03-29 09:49:00,36.6,25.2,30.35,SSW,212,5.0,7.0,63,0.00,,---,0.00,VWS V14.01,2013-03-29 13:49:00,
2013-03-29 09:54:00,36.7,25.3,30.35,SSW,194,5.0,7.0,63,0.00,,---,0.00,VWS V14.01,2013-03-29 13:54:00,
2013-03-29 09:59:00,37.0,25.6,30.35,SW,222,0.0,7.0,63,0.00,,---,0.00,VWS V14.01,2013-03-29 13:59:00,
2013-03-29 10:04:00,37.7,25.9,30.35,SSW,205,2.0,3.0,62,0.00,,---,0.00,VWS V14.01,2013-03-29 14:04:00,
2013-03-29 10:09:00,37.8,25.6,30.35,West,259,4.0,7.0,61,0.00,,---,0.00,VWS V14.01,2013-03-29 14:09:00,
2013-03-29 10:14:00,37.6,25.0,30.35,West,262,3.0,7.0,60,0.00,,---,0.00,VWS V14.01,2013-03-29 14:14:00,
2013-03-29 10:19:00,37.9,25.3,30.35,WSW,248,2.0,7.0,60,0.00,,---,0.00,VWS V14.01,2013-03-29 14:19:00,
2013-03-29 10:25:00,38.2,24.7,30.36,WSW,238,6.0,7.0,58,0.00,,---,0.00,VWS V14.01,2013-03-29 14:25:00,
2013-03-29 10:30:00,38.3,25.2,30.35,WSW,250,1.0,7.0,59,0.00,,---,0.00,VWS V14.01,2013-03-29 14:30:00,
2013-03-29 10:35:00,38.5,26.2,30.36,SSW,193,1.0,7.0,61,0.00,,---,0.00,VWS V14.01,2013-03-29 14:35:00,
2013-03-29 10:40:00,38.9,25.0,30.36,West,277,3.0,7.0,57,0.00,,---,0.00,VWS V14.01,2013-03-29 14:40:00,
2013-03-29 10:45:00,38.8,24.9,30.36,South,191,1.0,9.0,57,0.00,,---,0.00,VWS V14.01,2013-03-29 14:45:00,
2013-03-29 10:50:00,38.9,24.6,30.36,WSW,239,3.0,9.0,56,0.00,,---,0.00,VWS V14.01,2013-03-29 14:50:00,
2013-03-29 10:55:00,38.9,25.0,30.36,WNW,301,3.0,9.0,57,0.00,,---,0.00,VWS V14.01,2013-03-29 14:55:00,
2013-03-29 11:00:00,38.9,24.6,30.36,WSW,252,4.0,7.0,56,0.00,,---,0.00,VWS V14.01,2013-03-29 15:00:00,
2013-03-29 11:05:00,38.8,24.5,30.36,WNW,285,8.0,10.0,56,0.00,,---,0.00,VWS V14.01,2013-03-29 15:05:00,
2013-03-29 11:10:00,39.0,25.1,30.36,SW,231,6.0,10.0,57,0.00,,---,0.00,VWS V14.01,2013-03-29 15:10:00,
2013-03-29 11:15:00,39.2,24.8,30.36,SW,214,2.0,11.0,56,0.00,,---,0.00,VWS V14.01,2013-03-29 15:15:00,
2013-03-29 11:20:00,38.7,24.4,30.36,SSW,211,9.0,13.0,56,0.00,,---,0.00,VWS V14.01,2013-03-29 15:20:00,
2013-03-29 11:25:00,38.9,24.6,30.36,South,174,2.0,13.0,56,0.00,,---,0.00,VWS V14.01,2013-03-29 15:25:00,
2013-03-29 11:30:00,39.3,24.9,30.36,SSE,160,3.0,7.0,56,0.00,,---,0.00,VWS V14.01,2013-03-29 15:30:00,
2013-03-29 11:35:00,38.8,24.0,30.36,SSW,201,3.0,9.0,55,0.00,,---,0.00,VWS V14.01,2013-03-29 15:35:00,
2013-03-29 11:40:00,39.3,24.9,30.36,SSW,212,5.0,9.0,56,0.00,,---,0.00,VWS V14.01,2013-03-29 15:40:00,
2013-03-29 11:45:00,39.4,24.6,30.36,South,176,4.0,9.0,55,0.00,,---,0.00,VWS V14.01,2013-03-29 15:45:00,
2013-03-29 11:50:00,39.7,25.7,30.35,SW,232,6.0,9.0,57,0.00,,---,0.00,VWS V14.01,2013-03-29 15:50:00,
2013-03-29 11:55:00,39.9,25.9,30.35,SW,236,4.0,12.0,57,0.00,,---,0.00,VWS V14.01,2013-03-29 15:55:00,
2013-03-29 12:00:00,40.0,25.6,30.35,South,183,1.0,3.0,56,0.00,,---,0.00,VWS V14.01,2013-03-29 16:00:00,
2013-03-29 12:05:00,40.4,25.5,30.35,SSW,210,3.0,6.0,55,0.00,,---,0.00,VWS V14.01,2013-03-29 16:05:00,
2013-03-29 12:10:00,40.7,26.2,30.35,WNW,290,3.0,6.0,56,0.00,,---,0.00,VWS V14.01,2013-03-29 16:10:00,
2013-03-29 12:15:00,41.4,26.9,30.34,WSW,250,3.0,6.0,56,0.00,,---,0.00,VWS V14.01,2013-03-29 16:15:00,
2013-03-29 12:20:00,41.4,25.6,30.34,WNW,290,5.0,10.0,53,0.00,,---,0.00,VWS V14.01,2013-03-29 16:20:00,
2013-03-29 12:25:00,40.9,25.5,30.34,SSW,193,4.0,14.0,54,0.00,,---,0.00,VWS V14.01,2013-03-29 16:25:00,
2013-03-29 12:30:00,40.7,25.4,30.33,SSW,211,5.0,9.0,54,0.00,,---,0.00,VWS V14.01,2013-03-29 16:30:00,
2013-03-29 12:35:00,41.2,25.8,30.33,South,170,6.0,11.0,54,0.00,,---,0.00,VWS V14.01,2013-03-29 16:35:00,
2013-03-29 12:40:00,41.9,26.5,30.33,West,280,1.0,11.0,54,0.00,,---,0.00,VWS V14.01,2013-03-29 16:40:00,
2013-03-29 12:46:00,42.1,25.3,30.33,SSE,158,3.0,11.0,51,0.00,,---,0.00,VWS V14.01,2013-03-29 16:46:00,
2013-03-29 12:51:00,42.1,25.8,30.33,WNW,287,0.0,11.0,52,0.00,,---,0.00,VWS V14.01,2013-03-29 16:51:00,
2013-03-29 12:56:00,42.9,27.0,30.33,SSW,211,8.0,11.0,53,0.00,,---,0.00,VWS V14.01,2013-03-29 16:56:00,
2013-03-29 13:01:00,42.5,26.1,30.33,SSW,205,11.0,11.0,52,0.00,,---,0.00,VWS V14.01,2013-03-29 17:01:00,
2013-03-29 13:06:00,42.4,26.0,30.32,SW,224,3.0,12.0,52,0.00,,---,0.00,VWS V14.01,2013-03-29 17:06:00,
2013-03-29 13:11:00,42.5,25.7,30.32,NNE,33,1.0,12.0,51,0.00,,---,0.00,VWS V14.01,2013-03-29 17:11:00,
2013-03-29 13:16:00,43.2,26.3,30.32,West,281,6.0,12.0,51,0.00,,---,0.00,VWS V14.01,2013-03-29 17:16:00,
2013-03-29 13:21:00,43.3,24.9,30.32,West,264,6.0,12.0,48,0.00,,---,0.00,VWS V14.01,2013-03-29 17:21:00,
2013-03-29 13:26:00,43.3,25.4,30.31,SW,219,1.0,12.0,49,0.00,,---,0.00,VWS V14.01,2013-03-29 17:26:00,
2013-03-29 13:32:00,44.0,25.6,30.31,WNW,290,2.0,4.0,48,0.00,,---,0.00,VWS V14.01,2013-03-29 17:32:00,
2013-03-29 13:37:00,44.2,23.7,30.31,SW,224,4.0,10.0,44,0.00,,---,0.00,VWS V14.01,2013-03-29 17:37:00,
2013-03-29 13:42:00,43.7,22.1,30.30,NW,316,5.0,12.0,42,0.00,,---,0.00,VWS V14.01,2013-03-29 17:42:00,
2013-03-29 13:47:00,44.0,24.6,30.30,WNW,302,5.0,12.0,46,0.00,,---,0.00,VWS V14.01,2013-03-29 17:47:00,
2013-03-29 13:52:00,43.8,23.9,30.29,WNW,294,1.0,12.0,45,0.00,,---,0.00,VWS V14.01,2013-03-29 17:52:00,
2013-03-29 13:57:00,44.0,24.0,30.29,SW,228,2.0,12.0,45,0.00,,---,0.00,VWS V14.01,2013-03-29 17:57:00,
2013-03-29 14:02:00,44.5,25.0,30.29,WNW,300,4.0,5.0,46,0.00,,---,0.00,VWS V14.01,2013-03-29 18:02:00,
2013-03-29 14:07:00,44.7,23.6,30.29,SW,233,5.0,12.0,43,0.00,,---,0.00,VWS V14.01,2013-03-29 18:07:00,
2013-03-29 14:12:00,44.7,23.6,30.29,South,176,3.0,12.0,43,0.00,,---,0.00,VWS V14.01,2013-03-29 18:12:00,
2013-03-29 14:17:00,45.5,24.3,30.28,WNW,297,6.0,12.0,43,0.00,,---,0.00,VWS V14.01,2013-03-29 18:17:00,
2013-03-29 14:22:00,45.3,24.1,30.28,West,271,2.0,12.0,43,0.00,,---,0.00,VWS V14.01,2013-03-29 18:22:00,
2013-03-29 14:27:00,45.5,25.4,30.28,SSW,195,5.0,12.0,45,0.00,,---,0.00,VWS V14.01,2013-03-29 18:27:00,
2013-03-29 14:32:00,45.4,24.8,30.28,NW,316,5.0,8.0,44,0.00,,---,0.00,VWS V14.01,2013-03-29 18:32:00,
2013-03-29 14:37:00,45.4,24.2,30.28,WNW,297,4.0,8.0,43,0.00,,---,0.00,VWS V14.01,2013-03-29 18:37:00,
2013-03-29 14:42:00,45.2,23.5,30.28,West,278,5.0,14.0,42,0.00,,---,0.00,VWS V14.01,2013-03-29 18:42:00,
2013-03-29 14:47:00,44.9,23.8,30.27,WNW,293,4.0,14.0,43,0.00,,---,0.00,VWS V14.01,2013-03-29 18:47:00,
2013-03-29 14:52:00,45.5,24.3,30.27,SSW,211,12.0,14.0,43,0.00,,---,0.00,VWS V14.01,2013-03-29 18:52:00,
2013-03-29 14:58:00,45.5,25.4,30.27,WNW,300,4.0,14.0,45,0.00,,---,0.00,VWS V14.01,2013-03-29 18:58:00,
2013-03-29 15:03:00,45.2,25.1,30.27,SW,230,4.0,8.0,45,0.00,,---,0.00,VWS V14.01,2013-03-29 19:03:00,
2013-03-29 15:08:00,45.6,25.5,30.26,WSW,250,3.0,8.0,45,0.00,,---,0.00,VWS V14.01,2013-03-29 19:08:00,
2013-03-29 15:13:00,46.0,25.3,30.26,WNW,294,6.0,11.0,44,0.00,,---,0.00,VWS V14.01,2013-03-29 19:13:00,
2013-03-29 15:18:00,45.8,25.1,30.26,NW,305,3.0,16.0,44,0.00,,---,0.00,VWS V14.01,2013-03-29 19:18:00,
2013-03-29 15:23:00,45.7,25.6,30.26,SW,232,4.0,16.0,45,0.00,,---,0.00,VWS V14.01,2013-03-29 19:23:00,
2013-03-29 15:28:00,46.2,26.0,30.26,West,269,3.0,16.0,45,0.00,,---,0.00,VWS V14.01,2013-03-29 19:28:00,
2013-03-29 15:33:00,46.0,25.3,30.25,WNW,287,3.0,11.0,44,0.00,,---,0.00,VWS V14.01,2013-03-29 19:33:00,
2013-03-29 15:38:00,46.6,26.4,30.25,West,281,7.0,11.0,45,0.00,,---,0.00,VWS V14.01,2013-03-29 19:38:00,
2013-03-29 15:43:00,46.8,28.2,30.25,WNW,301,5.0,15.0,48,0.00,,---,0.00,VWS V14.01,2013-03-29 19:43:00,
2013-03-29 15:48:00,46.8,26.6,30.25,West,261,7.0,15.0,45,0.00,,---,0.00,VWS V14.01,2013-03-29 19:48:00,
2013-03-29 15:53:00,46.5,26.3,30.25,WSW,250,3.0,15.0,45,0.00,,---,0.00,VWS V14.01,2013-03-29 19:53:00,
2013-03-29 15:58:00,46.1,26.0,30.25,NNW,342,6.0,15.0,45,0.00,,---,0.00,VWS V14.01,2013-03-29 19:58:00,
2013-03-29 16:03:00,46.1,24.9,30.25,SSW,212,5.0,14.0,43,0.00,,---,0.00,VWS V14.01,2013-03-29 20:03:00,
2013-03-29 16:08:00,45.7,26.1,30.25,SW,228,4.0,14.0,46,0.00,,---,0.00,VWS V14.01,2013-03-29 20:08:00,
2013-03-29 16:13:00,45.7,25.0,30.25,SW,236,3.0,14.0,44,0.00,,---,0.00,VWS V14.01,2013-03-29 20:13:00,
2013-03-29 16:18:00,45.3,24.7,30.25,WSW,245,1.0,14.0,44,0.00,,---,0.00,VWS V14.01,2013-03-29 20:18:00,
2013-03-29 16:23:00,45.2,25.1,30.25,WSW,240,1.0,14.0,45,0.00,,---,0.00,VWS V14.01,2013-03-29 20:23:00,
2013-03-29 16:28:00,45.2,25.7,30.24,SSW,212,2.0,14.0,46,0.00,,---,0.00,VWS V14.01,2013-03-29 20:28:00,
2013-03-29 16:33:00,45.3,26.8,30.25,SW,222,2.0,4.0,48,0.00,,---,0.00,VWS V14.01,2013-03-29 20:33:00,
2013-03-29 16:38:00,45.7,26.1,30.24,West,267,3.0,9.0,46,0.00,,---,0.00,VWS V14.01,2013-03-29 20:38:00,
2013-03-29 16:43:00,46.1,26.5,30.24,WSW,243,5.0,9.0,46,0.00,,---,0.00,VWS V14.01,2013-03-29 20:43:00,
2013-03-29 16:48:00,46.1,25.4,30.24,NW,304,3.0,15.0,44,0.00,,---,0.00,VWS V14.01,2013-03-29 20:48:00,
2013-03-29 16:53:00,46.4,26.8,30.24,WSW,246,5.0,15.0,46,0.00,,---,0.00,VWS V14.01,2013-03-29 20:53:00,
2013-03-29 16:58:00,46.1,26.0,30.24,WNW,292,2.0,15.0,45,0.00,,---,0.00,VWS V14.01,2013-03-29 20:58:00,
2013-03-29 17:03:00,45.9,27.3,30.24,SSW,193,4.0,6.0,48,0.00,,---,0.00,VWS V14.01,2013-03-29 21:03:00,
2013-03-29 17:08:00,46.3,26.7,30.23,WNW,297,1.0,7.0,46,0.00,,---,0.00,VWS V14.01,2013-03-29 21:08:00,
2013-03-29 17:13:00,46.6,26.9,30.23,West,278,4.0,7.0,46,0.00,,---,0.00,VWS V14.01,2013-03-29 21:13:00,
2013-03-29 17:19:00,46.1,26.0,30.23,WNW,290,5.0,8.0,45,0.00,,---,0.00,VWS V14.01,2013-03-29 21:19:00,
2013-03-29 17:24:00,45.9,25.8,30.23,SW,214,5.0,10.0,45,0.00,,---,0.00,VWS V14.01,2013-03-29 21:24:00,
2013-03-29 17:29:00,46.0,26.9,30.23,WSW,249,3.0,10.0,47,0.00,,---,0.00,VWS V14.01,2013-03-29 21:29:00,
2013-03-29 17:34:00,46.5,26.3,30.23,WNW,291,2.0,8.0,45,0.00,,---,0.00,VWS V14.01,2013-03-29 21:34:00,
2013-03-29 17:39:00,46.5,26.3,30.24,SW,218,6.0,12.0,45,0.00,,---,0.00,VWS V14.01,2013-03-29 21:39:00,
2013-03-29 17:44:00,46.0,25.9,30.23,West,278,3.0,12.0,45,0.00,,---,0.00,VWS V14.01,2013-03-29 21:44:00,
2013-03-29 17:49:00,45.7,27.1,30.23,WNW,295,4.0,12.0,48,0.00,,---,0.00,VWS V14.01,2013-03-29 21:49:00,
2013-03-29 17:54:00,45.4,25.9,30.24,WNW,285,6.0,12.0,46,0.00,,---,0.00,VWS V14.01,2013-03-29 21:54:00,
2013-03-29 17:59:00,45.3,26.3,30.23,WNW,296,3.0,12.0,47,0.00,,---,0.00,VWS V14.01,2013-03-29 21:59:00,
2013-03-29 18:04:00,45.4,25.9,30.23,SSW,201,5.0,8.0,46,0.00,,---,0.00,VWS V14.01,2013-03-29 22:04:00,
2013-03-29 18:09:00,45.9,25.8,30.23,WNW,300,2.0,9.0,45,0.00,,---,0.00,VWS V14.01,2013-03-29 22:09:00,
2013-03-29 18:14:00,45.7,26.6,30.23,West,274,7.0,9.0,47,0.00,,---,0.00,VWS V14.01,2013-03-29 22:14:00,
2013-03-29 18:19:00,45.3,26.3,30.23,WNW,300,1.0,10.0,47,0.00,,---,0.00,VWS V14.01,2013-03-29 22:19:00,
2013-03-29 18:24:00,45.1,26.6,30.23,WNW,300,2.0,10.0,48,0.00,,---,0.00,VWS V14.01,2013-03-29 22:24:00,
2013-03-29 18:29:00,44.9,25.9,30.23,WSW,253,1.0,10.0,47,0.00,,---,0.00,VWS V14.01,2013-03-29 22:29:00,
2013-03-29 18:34:00,45.1,26.6,30.23,West,273,2.0,7.0,48,0.00,,---,0.00,VWS V14.01,2013-03-29 22:34:00,
2013-03-29 18:39:00,45.3,26.3,30.23,WSW,258,1.0,7.0,47,0.00,,---,0.00,VWS V14.01,2013-03-29 22:39:00,
2013-03-29 18:44:00,45.5,25.9,30.23,West,276,8.0,9.0,46,0.00,,---,0.00,VWS V14.01,2013-03-29 22:44:00,
2013-03-29 18:49:00,45.4,26.9,30.23,WNW,291,5.0,9.0,48,0.00,,---,0.00,VWS V14.01,2013-03-29 22:49:00,
2013-03-29 18:54:00,45.2,26.7,30.24,WNW,290,2.0,9.0,48,0.00,,---,0.00,VWS V14.01,2013-03-29 22:54:00,
2013-03-29 18:59:00,45.0,26.5,30.23,SSW,200,0.0,9.0,48,0.00,,---,0.00,VWS V14.01,2013-03-29 22:59:00,
2013-03-29 19:04:00,44.5,25.5,30.23,WNW,287,6.0,7.0,47,0.00,,---,0.00,VWS V14.01,2013-03-29 23:04:00,
2013-03-29 19:09:00,44.1,25.7,30.23,WNW,293,4.0,7.0,48,0.00,,---,0.00,VWS V14.01,2013-03-29 23:09:00,
2013-03-29 19:14:00,43.8,25.9,30.24,WNW,295,1.0,7.0,49,0.00,,---,0.00,VWS V14.01,2013-03-29 23:14:00,
2013-03-29 19:19:00,43.5,26.6,30.24,WNW,300,0.0,7.0,51,0.00,,---,0.00,VWS V14.01,2013-03-29 23:19:00,
2013-03-29 19:24:00,43.1,26.2,30.24,WSW,242,2.0,7.0,51,0.00,,---,0.00,VWS V14.01,2013-03-29 23:24:00,
2013-03-29 19:29:00,42.9,26.0,30.24,WSW,245,0.0,7.0,51,0.00,,---,0.00,VWS V14.01,2013-03-29 23:29:00,
2013-03-29 19:34:00,42.7,25.9,30.24,WNW,284,0.0,2.0,51,0.00,,---,0.00,VWS V14.01,2013-03-29 23:34:00,
2013-03-29 19:39:00,42.3,25.9,30.24,WNW,284,0.0,2.0,52,0.00,,---,0.00,VWS V14.01,2013-03-29 23:39:00,
2013-03-29 19:44:00,42.0,25.7,30.24,North,349,0.0,2.0,52,0.00,,---,0.00,VWS V14.01,2013-03-29 23:44:00,
2013-03-29 19:49:00,41.7,25.9,30.24,NNW,333,0.0,3.0,53,0.00,,---,0.00,VWS V14.01,2013-03-29 23:49:00,
2013-03-29 19:54:00,41.5,25.7,30.24,SSW,211,0.0,3.0,53,0.00,,---,0.00,VWS V14.01,2013-03-29 23:54:00,
2013-03-29 19:59:00,41.2,25.4,30.24,North,354,0.0,3.0,53,0.00,,---,0.00,VWS V14.01,2013-03-29 23:59:00,
2013-03-29 20:04:00,41.0,25.6,30.24,NNW,340,0.0,1.0,54,0.00,,---,0.00,VWS V14.01,2013-03-30 00:04:00,
2013-03-29 20:09:00,40.8,25.5,30.24,NNW,340,0.0,1.0,54,0.00,,---,0.00,VWS V14.01,2013-03-30 00:09:00,
2013-03-29 20:14:00,40.5,25.6,30.24,NNW,340,0.0,1.0,55,0.00,,---,0.00,VWS V14.01,2013-03-30 00:14:00,
2013-03-29 20:19:00,40.1,25.2,30.24,NNW,340,0.0,1.0,55,0.00,,---,0.00,VWS V14.01,2013-03-30 00:19:00,
2013-03-29 20:24:00,39.9,25.5,30.24,NNW,340,0.0,1.0,56,0.00,,---,0.00,VWS V14.01,2013-03-30 00:24:00,
2013-03-29 20:29:00,40.0,25.1,30.24,NNW,348,0.0,1.0,55,0.00,,---,0.00,VWS V14.01,2013-03-30 00:29:00,
2013-03-29 20:34:00,39.8,25.4,30.24,NNW,348,0.0,0.0,56,0.00,,---,0.00,VWS V14.01,2013-03-30 00:34:00,
2013-03-29 20:39:00,39.2,24.8,30.24,NNW,348,0.0,0.0,56,0.00,,---,0.00,VWS V14.01,2013-03-30 00:39:00,
2013-03-29 20:44:00,38.5,24.6,30.24,NNW,348,0.0,0.0,57,0.00,,---,0.00,VWS V14.01,2013-03-30 00:44:00,
2013-03-29 20:49:00,38.4,24.9,30.24,North,349,0.0,0.0,58,0.00,,---,0.00,VWS V14.01,2013-03-30 00:49:00,
2013-03-29 20:54:00,38.6,25.1,30.24,North,349,0.0,0.0,58,0.00,,---,0.00,VWS V14.01,2013-03-30 00:54:00,
2013-03-29 20:59:00,38.4,24.9,30.24,North,349,0.0,0.0,58,0.00,,---,0.00,VWS V14.01,2013-03-30 00:59:00,
2013-03-29 21:05:00,38.1,24.6,30.25,North,349,0.0,0.0,58,0.00,,---,0.00,VWS V14.01,2013-03-30 01:05:00,
2013-03-29 21:09:00,38.3,24.8,30.25,North,349,0.0,1.0,58,0.00,,---,0.00,VWS V14.01,2013-03-30 01:09:00,
2013-03-29 21:14:00,38.1,25.5,30.25,NNW,348,1.0,1.0,60,0.00,,---,0.00,VWS V14.01,2013-03-30 01:14:00,
2013-03-29 21:19:00,37.0,26.3,30.25,ESE,119,0.0,1.0,65,0.00,,---,0.00,VWS V14.01,2013-03-30 01:19:00,
2013-03-29 21:25:00,36.3,26.0,30.25,ESE,118,0.0,1.0,66,0.00,,---,0.00,VWS V14.01,2013-03-30 01:25:00,
2013-03-29 21:30:00,35.7,25.1,30.25,ESE,118,0.0,1.0,65,0.00,,---,0.00,VWS V14.01,2013-03-30 01:30:00,
2013-03-29 21:35:00,35.5,25.3,30.25,ESE,119,0.0,0.0,66,0.00,,---,0.00,VWS V14.01,2013-03-30 01:35:00,
2013-03-29 21:40:00,35.3,25.5,30.25,ESE,118,0.0,0.0,67,0.00,,---,0.00,VWS V14.01,2013-03-30 01:40:00,
2013-03-29 21:45:00,35.0,25.5,30.26,ESE,119,0.0,0.0,68,0.00,,---,0.00,VWS V14.01,2013-03-30 01:45:00,
2013-03-29 21:50:00,34.9,25.8,30.26,ESE,118,0.0,0.0,69,0.00,,---,0.00,VWS V14.01,2013-03-30 01:50:00,
2013-03-29 21:55:00,35.1,26.0,30.26,ESE,119,0.0,0.0,69,0.00,,---,0.00,VWS V14.01,2013-03-30 01:55:00,
2013-03-29 22:00:00,35.0,26.2,30.26,ESE,119,0.0,0.0,70,0.00,,---,0.00,VWS V14.01,2013-03-30 02:00:00,
2013-03-29 22:05:00,34.8,26.4,30.26,ESE,118,0.0,0.0,71,0.00,,---,0.00,VWS V14.01,2013-03-30 02:05:00,
2013-03-29 22:10:00,34.3,26.2,30.26,ESE,119,0.0,0.0,72,0.00,,---,0.00,VWS V14.01,2013-03-30 02:10:00,
2013-03-29 22:15:00,33.7,26.0,30.26,ESE,119,0.0,0.0,73,0.00,,---,0.00,VWS V14.01,2013-03-30 02:15:00,
2013-03-29 22:20:00,33.6,26.9,30.26,ESE,119,0.0,0.0,76,0.00,,---,0.00,VWS V14.01,2013-03-30 02:20:00,
2013-03-29 22:25:00,33.6,27.2,30.26,ESE,119,0.0,0.0,77,0.00,,---,0.00,VWS V14.01,2013-03-30 02:25:00,
2013-03-29 22:30:00,33.6,27.5,30.26,ESE,119,0.0,0.0,78,0.00,,---,0.00,VWS V14.01,2013-03-30 02:30:00,
2013-03-29 22:35:00,33.4,27.3,30.26,ESE,119,0.0,0.0,78,0.00,,---,0.00,VWS V14.01,2013-03-30 02:35:00,
2013-03-29 22:40:00,33.3,27.5,30.26,ESE,119,0.0,0.0,79,0.00,,---,0.00,VWS V14.01,2013-03-30 02:40:00,
2013-03-29 22:45:00,33.2,27.7,30.27,ESE,118,0.0,0.0,80,0.00,,---,0.00,VWS V14.01,2013-03-30 02:45:00,
2013-03-29 22:50:00,33.2,27.4,30.26,ESE,118,0.0,0.0,79,0.00,,---,0.00,VWS V14.01,2013-03-30 02:50:00,
2013-03-29 22:55:00,33.2,27.4,30.26,ESE,118,0.0,0.0,79,0.00,,---,0.00,VWS V14.01,2013-03-30 02:55:00,
2013-03-29 23:00:00,33.2,27.7,30.26,ESE,119,0.0,0.0,80,0.00,,---,0.00,VWS V14.01,2013-03-30 03:00:00,
2013-03-29 23:05:00,33.3,27.8,30.26,ESE,119,0.0,1.0,80,0.00,,---,0.00,VWS V14.01,2013-03-30 03:05:00,
2013-03-29 23:10:00,33.4,27.9,30.26,ESE,119,0.0,1.0,80,0.00,,---,0.00,VWS V14.01,2013-03-30 03:10:00,
2013-03-29 23:15:00,33.5,27.7,30.26,ESE,119,0.0,1.0,79,0.00,,---,0.00,VWS V14.01,2013-03-30 03:15:00,
2013-03-29 23:20:00,33.5,27.7,30.26,ESE,119,0.0,1.0,79,0.00,,---,0.00,VWS V14.01,2013-03-30 03:20:00,
2013-03-29 23:25:00,33.5,27.7,30.26,ESE,118,1.0,1.0,79,0.00,,---,0.00,VWS V14.01,2013-03-30 03:25:00,
2013-03-29 23:30:00,33.5,27.7,30.26,South,169,0.0,1.0,79,0.00,,---,0.00,VWS V14.01,2013-03-30 03:30:00,
2013-03-29 23:35:00,33.5,27.4,30.27,SSW,198,1.0,3.0,78,0.00,,---,0.00,VWS V14.01,2013-03-30 03:35:00,
2013-03-29 23:40:00,33.6,27.2,30.27,SSW,203,0.0,3.0,77,0.00,,---,0.00,VWS V14.01,2013-03-30 03:40:00,
2013-03-29 23:46:00,33.7,27.0,30.27,SSW,193,0.0,3.0,76,0.00,,---,0.00,VWS V14.01,2013-03-30 03:46:00,
2013-03-29 23:51:00,33.9,26.8,30.27,SSE,167,1.0,3.0,75,0.00,,---,0.00,VWS V14.01,2013-03-30 03:51:00,
2013-03-29 23:56:00,33.9,26.8,30.27,SSE,167,0.0,3.0,75,0.00,,---,0.00,VWS V14.01,2013-03-30 03:56:00,